Time,TemperatureF,DewpointF,PressureIn,WindDirection,WindDirectionDegrees,WindSpeedMPH,WindSpeedGustMPH,Humidity,HourlyPrecipIn,Conditions,Clouds,dailyrainin,SoftwareType,DateUTC
2013-05-04 00:02:00,64.0,37.0,29.18,SE,126,3.0,10.0,36,0.00,,,0.00,,2013-05-04 04:02:00,
2013-05-04 00:12:00,64.0,37.0,29.18,SE,126,3.0,10.0,36,0.00,,,0.00,,2013-05-04 04:12:00,
2013-05-04 00:23:00,64.0,37.0,29.18,SE,135,2.0,7.0,37,0.00,,,0.00,,2013-05-04 04:23:00,
2013-05-04 00:33:00,63.0,36.0,29.18,East,96,3.0,7.0,37,0.00,,,0.00,,2013-05-04 04:33:00,
2013-05-04 00:42:00,63.0,36.0,29.18,East,96,3.0,7.0,37,0.00,,,0.00,,2013-05-04 04:42:00,
2013-05-04 00:53:00,63.0,36.0,29.18,ESE,113,2.0,6.0,37,0.00,,,0.00,,2013-05-04 04:53:00,
2013-05-04 01:02:00,62.0,37.0,29.18,ESE,113,2.0,7.0,39,0.00,,,0.00,,2013-05-04 05:02:00,
2013-05-04 01:12:00,62.0,37.0,29.18,ESE,113,2.0,7.0,39,0.00,,,0.00,,2013-05-04 05:12:00,
2013-05-04 01:22:00,62.0,37.0,29.18,ESE,121,3.0,7.0,39,0.00,,,0.00,,2013-05-04 05:22:00,
2013-05-04 01:32:00,61.0,36.0,29.18,ESE,108,3.0,6.0,40,0.00,,,0.00,,2013-05-04 05:32:00,
2013-05-04 01:43:00,61.0,36.0,29.18,ESE,108,3.0,6.0,40,0.00,,,0.00,,2013-05-04 05:43:00,
2013-05-04 01:52:00,61.0,37.0,29.15,ESE,107,2.0,5.0,41,0.00,,,0.00,,2013-05-04 05:52:00,
2013-05-04 02:01:00,60.0,37.0,29.18,SE,138,2.0,4.0,42,0.00,,,0.00,,2013-05-04 06:01:00,
2013-05-04 02:11:00,60.0,37.0,29.18,SE,138,2.0,4.0,42,0.00,,,0.00,,2013-05-04 06:11:00,
2013-05-04 02:22:00,60.0,37.0,29.18,East,90,2.0,4.0,43,0.00,,,0.00,,2013-05-04 06:22:00,
2013-05-04 02:32:00,59.0,37.0,29.15,ESE,112,1.0,5.0,43,0.00,,,0.00,,2013-05-04 06:32:00,
2013-05-04 02:42:00,59.0,37.0,29.15,ESE,112,1.0,5.0,43,0.00,,,0.00,,2013-05-04 06:42:00,
2013-05-04 02:52:00,59.0,37.0,29.15,ESE,104,2.0,4.0,44,0.00,,,0.00,,2013-05-04 06:52:00,
2013-05-04 03:01:00,59.0,38.0,29.15,ESE,112,3.0,5.0,45,0.00,,,0.00,,2013-05-04 07:01:00,
2013-05-04 03:11:00,59.0,38.0,29.15,ESE,112,3.0,5.0,45,0.00,,,0.00,,2013-05-04 07:11:00,
2013-05-04 03:21:00,59.0,38.0,29.15,SE,125,3.0,5.0,45,0.00,,,0.00,,2013-05-04 07:21:00,
2013-05-04 03:32:00,58.0,37.0,29.15,East,101,3.0,8.0,45,0.00,,,0.00,,2013-05-04 07:32:00,
2013-05-04 03:42:00,58.0,37.0,29.15,East,101,3.0,8.0,45,0.00,,,0.00,,2013-05-04 07:42:00,
2013-05-04 03:52:00,58.0,37.0,29.15,SE,129,2.0,6.0,45,0.00,,,0.00,,2013-05-04 07:52:00,
2013-05-04 04:02:00,58.0,37.0,29.15,ESE,108,3.0,8.0,45,0.00,,,0.00,,2013-05-04 08:02:00,
2013-05-04 04:11:00,58.0,37.0,29.15,ESE,108,3.0,8.0,45,0.00,,,0.00,,2013-05-04 08:11:00,
2013-05-04 04:21:00,57.0,36.0,29.15,ESE,116,3.0,6.0,45,0.00,,,0.00,,2013-05-04 08:21:00,
2013-05-04 04:32:00,57.0,32.0,29.15,SE,137,4.0,9.0,39,0.00,,,0.00,,2013-05-04 08:32:00,
2013-05-04 04:42:00,57.0,32.0,29.15,SE,137,4.0,9.0,39,0.00,,,0.00,,2013-05-04 08:42:00,
2013-05-04 04:52:00,56.0,31.0,29.15,SSE,154,2.0,6.0,38,0.00,,,0.00,,2013-05-04 08:52:00,
2013-05-04 05:02:00,56.0,30.0,29.15,SE,131,3.0,9.0,37,0.00,,,0.00,,2013-05-04 09:02:00,
2013-05-04 05:11:00,56.0,30.0,29.15,SE,131,3.0,9.0,37,0.00,,,0.00,,2013-05-04 09:11:00,
2013-05-04 05:22:00,55.0,29.0,29.15,East,86,2.0,4.0,37,0.00,,,0.00,,2013-05-04 09:22:00,
2013-05-04 05:32:00,54.0,29.0,29.15,NE,36,2.0,6.0,38,0.00,,,0.00,,2013-05-04 09:32:00,
2013-05-04 05:42:00,54.0,29.0,29.15,NE,36,2.0,6.0,38,0.00,,,0.00,,2013-05-04 09:42:00,
2013-05-04 05:53:00,54.0,28.0,29.15,SE,133,2.0,6.0,37,0.00,,,0.00,,2013-05-04 09:53:00,
2013-05-04 06:03:00,53.0,28.0,29.15,ENE,71,2.0,6.0,38,0.00,,,0.00,,2013-05-04 10:03:00,
2013-05-04 06:12:00,53.0,28.0,29.15,ENE,71,2.0,6.0,38,0.00,,,0.00,,2013-05-04 10:12:00,
2013-05-04 06:23:00,53.0,28.0,29.15,ESE,109,1.0,7.0,38,0.00,,,0.00,,2013-05-04 10:23:00,
2013-05-04 06:33:00,52.0,27.0,29.15,SE,126,2.0,4.0,37,0.00,,,0.00,,2013-05-04 10:33:00,
2013-05-04 06:42:00,52.0,27.0,29.15,SE,126,2.0,4.0,37,0.00,,,0.00,,2013-05-04 10:42:00,
2013-05-04 06:53:00,52.0,27.0,29.14,East,90,0.0,5.0,37,0.00,,,0.00,,2013-05-04 10:53:00,
2013-05-04 07:02:00,52.0,26.0,29.14,SSE,157,1.0,4.0,36,0.00,,,0.00,,2013-05-04 11:02:00,
2013-05-04 07:11:00,52.0,26.0,29.14,SSE,157,1.0,4.0,36,0.00,,,0.00,,2013-05-04 11:11:00,
2013-05-04 07:21:00,52.0,26.0,29.17,ENE,74,1.0,4.0,36,0.00,,,0.00,,2013-05-04 11:21:00,
2013-05-04 07:32:00,52.0,26.0,29.17,ESE,108,3.0,5.0,36,0.00,,,0.00,,2013-05-04 11:32:00,
2013-05-04 07:45:00,52.0,26.0,29.17,ESE,108,3.0,5.0,36,0.00,,,0.00,,2013-05-04 11:45:00,
2013-05-04 07:56:00,53.0,27.0,29.14,ESE,117,2.0,6.0,36,0.00,,,0.00,,2013-05-04 11:56:00,
2013-05-04 08:09:00,54.0,26.0,29.14,ESE,103,3.0,7.0,34,0.00,,,0.00,,2013-05-04 12:09:00,
2013-05-04 08:30:00,54.0,27.0,29.17,ESE,122,2.0,6.0,35,0.00,,,0.00,,2013-05-04 12:30:00,
2013-05-04 08:37:00,58.0,28.0,29.14,NE,46,2.0,6.0,32,0.00,,,0.00,,2013-05-04 12:37:00,
2013-05-04 08:51:00,57.0,26.0,29.14,SSE,161,3.0,5.0,30,0.00,,,0.00,,2013-05-04 12:51:00,
2013-05-04 09:01:00,58.0,25.0,29.17,SE,127,4.0,10.0,28,0.00,,,0.00,,2013-05-04 13:01:00,
2013-05-04 09:21:00,57.0,23.0,29.17,ESE,115,4.0,9.0,27,0.00,,,0.00,,2013-05-04 13:21:00,
2013-05-04 09:32:00,58.0,24.0,29.17,SE,134,2.0,8.0,27,0.00,,,0.00,,2013-05-04 13:32:00,
2013-05-04 09:42:00,58.0,24.0,29.17,SE,134,2.0,8.0,27,0.00,,,0.00,,2013-05-04 13:42:00,
2013-05-04 09:52:00,58.0,24.0,29.17,SE,143,3.0,6.0,27,0.00,,,0.00,,2013-05-04 13:52:00,
2013-05-04 10:02:00,59.0,24.0,29.17,SE,128,3.0,4.0,26,0.00,,,0.00,,2013-05-04 14:02:00,
2013-05-04 10:11:00,59.0,24.0,29.17,SE,128,3.0,4.0,26,0.00,,,0.00,,2013-05-04 14:11:00,
2013-05-04 10:21:00,61.0,25.0,29.17,SE,145,3.0,6.0,25,0.00,,,0.00,,2013-05-04 14:21:00,
2013-05-04 10:32:00,63.0,26.0,29.14,SE,136,3.0,9.0,24,0.00,,,0.00,,2013-05-04 14:32:00,
2013-05-04 10:42:00,63.0,26.0,29.14,SE,136,3.0,9.0,24,0.00,,,0.00,,2013-05-04 14:42:00,
2013-05-04 10:52:00,65.0,26.0,29.17,SSE,162,3.0,5.0,23,0.00,,,0.00,,2013-05-04 14:52:00,
2013-05-04 11:02:00,65.0,26.0,29.17,SE,127,4.0,6.0,23,0.00,,,0.00,,2013-05-04 15:02:00,
2013-05-04 11:12:00,65.0,26.0,29.17,SE,127,4.0,6.0,23,0.00,,,0.00,,2013-05-04 15:12:00,
2013-05-04 11:22:00,66.0,26.0,29.18,ESE,123,3.0,6.0,22,0.00,,,0.00,,2013-05-04 15:22:00,
2013-05-04 11:33:00,67.0,27.0,29.18,ESE,107,3.0,7.0,22,0.00,,,0.00,,2013-05-04 15:33:00,
2013-05-04 11:43:00,67.0,27.0,29.18,ESE,107,3.0,7.0,22,0.00,,,0.00,,2013-05-04 15:43:00,
2013-05-04 11:53:00,69.0,29.0,29.15,ESE,112,3.0,6.0,22,0.00,,,0.00,,2013-05-04 15:53:00,
2013-05-04 12:03:00,70.0,29.0,29.15,SSE,149,3.0,7.0,22,0.00,,,0.00,,2013-05-04 16:03:00,
2013-05-04 12:12:00,70.0,29.0,29.15,SSE,149,3.0,7.0,22,0.00,,,0.00,,2013-05-04 16:12:00,
2013-05-04 12:22:00,71.0,30.0,29.15,South,183,4.0,8.0,22,0.00,,,0.00,,2013-05-04 16:22:00,
2013-05-04 12:33:00,70.0,29.0,29.15,SSW,196,3.0,5.0,22,0.00,,,0.00,,2013-05-04 16:33:00,
2013-05-04 12:42:00,70.0,29.0,29.15,SSW,196,3.0,5.0,22,0.00,,,0.00,,2013-05-04 16:42:00,
2013-05-04 12:52:00,72.0,30.0,29.15,South,186,3.0,6.0,21,0.00,,,0.00,,2013-05-04 16:52:00,
2013-05-04 13:02:00,72.0,30.0,29.15,SE,139,3.0,9.0,21,0.00,,,0.00,,2013-05-04 17:02:00,
2013-05-04 13:12:00,72.0,30.0,29.15,SE,139,3.0,9.0,21,0.00,,,0.00,,2013-05-04 17:12:00,
2013-05-04 13:22:00,73.0,31.0,29.15,ENE,68,2.0,8.0,21,0.00,,,0.00,,2013-05-04 17:22:00,
2013-05-04 13:32:00,73.0,31.0,29.15,ESE,120,4.0,9.0,21,0.00,,,0.00,,2013-05-04 17:32:00,
2013-05-04 13:42:00,73.0,31.0,29.15,ESE,120,4.0,9.0,21,0.00,,,0.00,,2013-05-04 17:42:00,
2013-05-04 13:52:00,74.0,32.0,29.12,ESE,107,5.0,9.0,21,0.00,,,0.00,,2013-05-04 17:52:00,
2013-05-04 14:01:00,74.0,32.0,29.12,SE,131,4.0,9.0,21,0.00,,,0.00,,2013-05-04 18:01:00,
2013-05-04 14:12:00,74.0,32.0,29.12,SE,131,4.0,9.0,21,0.00,,,0.00,,2013-05-04 18:12:00,
2013-05-04 14:22:00,75.0,32.0,29.12,ESE,116,5.0,11.0,21,0.00,,,0.00,,2013-05-04 18:22:00,
2013-05-04 14:32:00,76.0,32.0,29.12,ESE,114,4.0,9.0,20,0.00,,,0.00,,2013-05-04 18:32:00,
2013-05-04 14:42:00,76.0,32.0,29.12,ESE,114,4.0,9.0,20,0.00,,,0.00,,2013-05-04 18:42:00,
2013-05-04 14:52:00,76.0,31.0,29.12,SSE,165,4.0,10.0,19,0.00,,,0.00,,2013-05-04 18:52:00,
2013-05-04 15:01:00,76.0,29.0,29.12,SE,139,3.0,10.0,18,0.00,,,0.00,,2013-05-04 19:01:00,
2013-05-04 15:11:00,76.0,29.0,29.12,SE,139,3.0,10.0,18,0.00,,,0.00,,2013-05-04 19:11:00,
2013-05-04 15:21:00,77.0,30.0,29.09,SE,131,4.0,11.0,18,0.00,,,0.00,,2013-05-04 19:21:00,
2013-05-04 15:32:00,77.0,30.0,29.09,ESE,116,5.0,11.0,18,0.00,,,0.00,,2013-05-04 19:32:00,
2013-05-04 15:42:00,77.0,30.0,29.09,ESE,116,5.0,11.0,18,0.00,,,0.00,,2013-05-04 19:42:00,
2013-05-04 15:52:00,78.0,31.0,29.09,SSE,159,3.0,9.0,18,0.00,,,0.00,,2013-05-04 19:52:00,
2013-05-04 16:02:00,77.0,30.0,29.09,ESE,114,7.0,11.0,18,0.00,,,0.00,,2013-05-04 20:02:00,
2013-05-04 16:11:00,77.0,30.0,29.09,ESE,114,7.0,11.0,18,0.00,,,0.00,,2013-05-04 20:11:00,
2013-05-04 16:22:00,78.0,31.0,29.09,ESE,116,4.0,8.0,18,0.00,,,0.00,,2013-05-04 20:22:00,
2013-05-04 16:32:00,76.0,29.0,29.08,SE,140,6.0,11.0,18,0.00,,,0.00,,2013-05-04 20:32:00,
2013-05-04 16:42:00,76.0,29.0,29.08,SE,140,6.0,11.0,18,0.00,,,0.00,,2013-05-04 20:42:00,
2013-05-04 16:52:00,76.0,29.0,29.08,ESE,112,4.0,9.0,18,0.00,,,0.00,,2013-05-04 20:52:00,
2013-05-04 17:02:00,78.0,31.0,29.09,East,98,5.0,8.0,18,0.00,,,0.00,,2013-05-04 21:02:00,
2013-05-04 17:12:00,78.0,31.0,29.09,East,98,5.0,8.0,18,0.00,,,0.00,,2013-05-04 21:12:00,
2013-05-04 17:22:00,78.0,31.0,29.09,East,95,4.0,8.0,18,0.00,,,0.00,,2013-05-04 21:22:00,
2013-05-04 17:33:00,77.0,30.0,29.08,ESE,114,5.0,11.0,18,0.00,,,0.00,,2013-05-04 21:33:00,
2013-05-04 17:43:00,77.0,30.0,29.08,ESE,114,5.0,11.0,18,0.00,,,0.00,,2013-05-04 21:43:00,
2013-05-04 17:53:00,77.0,26.0,29.08,East,97,5.0,10.0,15,0.00,,,0.00,,2013-05-04 21:53:00,
2013-05-04 18:03:00,75.0,26.0,29.08,SE,126,5.0,11.0,16,0.00,,,0.00,,2013-05-04 22:03:00,
2013-05-04 18:12:00,75.0,26.0,29.08,SE,126,5.0,11.0,16,0.00,,,0.00,,2013-05-04 22:12:00,
2013-05-04 18:22:00,74.0,25.0,29.08,ESE,111,5.0,9.0,16,0.00,,,0.00,,2013-05-04 22:22:00,
2013-05-04 18:33:00,74.0,25.0,29.08,ESE,114,3.0,9.0,16,0.00,,,0.00,,2013-05-04 22:33:00,
2013-05-04 18:42:00,74.0,25.0,29.08,ESE,114,3.0,9.0,16,0.00,,,0.00,,2013-05-04 22:42:00,
2013-05-04 18:52:00,73.0,24.0,29.08,SSE,151,4.0,8.0,16,0.00,,,0.00,,2013-05-04 22:52:00,
2013-05-04 19:02:00,71.0,27.0,29.08,ESE,121,3.0,8.0,19,0.00,,,0.00,,2013-05-04 23:02:00,
2013-05-04 19:12:00,71.0,27.0,29.08,ESE,121,3.0,8.0,19,0.00,,,0.00,,2013-05-04 23:12:00,
2013-05-04 19:22:00,71.0,27.0,29.08,ESE,116,2.0,5.0,19,0.00,,,0.00,,2013-05-04 23:22:00,
2013-05-04 19:32:00,70.0,29.0,29.08,SE,137,3.0,9.0,22,0.00,,,0.00,,2013-05-04 23:32:00,
2013-05-04 19:42:00,70.0,29.0,29.08,SE,137,3.0,9.0,22,0.00,,,0.00,,2013-05-04 23:42:00,
2013-05-04 19:52:00,70.0,29.0,29.08,ESE,106,3.0,7.0,22,0.00,,,0.00,,2013-05-04 23:52:00,
2013-05-04 20:02:00,69.0,30.0,29.05,ESE,111,3.0,6.0,23,0.00,,,0.00,,2013-05-05 00:02:00,
2013-05-04 20:11:00,69.0,30.0,29.05,ESE,111,3.0,6.0,23,0.00,,,0.00,,2013-05-05 00:11:00,
2013-05-04 20:21:00,68.0,29.0,29.08,East,90,4.0,9.0,23,0.00,,,0.00,,2013-05-05 00:21:00,
2013-05-04 20:32:00,68.0,30.0,29.08,East,101,3.0,7.0,24,0.00,,,0.00,,2013-05-05 00:32:00,
2013-05-04 20:42:00,68.0,30.0,29.08,East,101,3.0,7.0,24,0.00,,,0.00,,2013-05-05 00:42:00,
2013-05-04 20:52:00,67.0,29.0,29.08,ESE,112,4.0,6.0,24,0.00,,,0.00,,2013-05-05 00:52:00,
2013-05-04 21:01:00,66.0,29.0,29.08,ESE,102,2.0,5.0,25,0.00,,,0.00,,2013-05-05 01:01:00,
2013-05-04 21:11:00,66.0,29.0,29.08,ESE,102,2.0,5.0,25,0.00,,,0.00,,2013-05-05 01:11:00,
2013-05-04 21:21:00,65.0,30.0,29.10,East,101,2.0,4.0,27,0.00,,,0.00,,2013-05-05 01:21:00,
2013-05-04 21:32:00,64.0,29.0,29.08,East,90,2.0,4.0,27,0.00,,,0.00,,2013-05-05 01:32:00,
2013-05-04 21:42:00,64.0,29.0,29.08,East,90,2.0,4.0,27,0.00,,,0.00,,2013-05-05 01:42:00,
2013-05-04 21:52:00,64.0,32.0,29.08,East,88,4.0,6.0,30,0.00,,,0.00,,2013-05-05 01:52:00,
2013-05-04 22:02:00,64.0,33.0,29.08,ESE,108,2.0,5.0,31,0.00,,,0.00,,2013-05-05 02:02:00,
2013-05-04 22:11:00,64.0,33.0,29.08,ESE,108,2.0,5.0,31,0.00,,,0.00,,2013-05-05 02:11:00,
2013-05-04 22:22:00,64.0,34.0,29.11,SE,128,2.0,4.0,32,0.00,,,0.00,,2013-05-05 02:22:00,
2013-05-04 22:32:00,63.0,33.0,29.11,SE,130,2.0,4.0,33,0.00,,,0.00,,2013-05-05 02:32:00,
2013-05-04 22:42:00,63.0,33.0,29.11,SE,130,2.0,4.0,33,0.00,,,0.00,,2013-05-05 02:42:00,
2013-05-04 22:52:00,63.0,33.0,29.11,ESE,112,3.0,9.0,33,0.00,,,0.00,,2013-05-05 02:52:00,
2013-05-04 23:01:00,63.0,33.0,29.11,SE,140,3.0,6.0,33,0.00,,,0.00,,2013-05-05 03:01:00,
2013-05-04 23:11:00,63.0,33.0,29.11,SE,140,3.0,6.0,33,0.00,,,0.00,,2013-05-05 03:11:00,
2013-05-04 23:22:00,63.0,34.0,29.11,East,89,4.0,11.0,34,0.00,,,0.00,,2013-05-05 03:22:00,
2013-05-04 23:33:00,62.0,33.0,29.11,ESE,108,2.0,6.0,34,0.00,,,0.00,,2013-05-05 03:33:00,
2013-05-04 23:42:00,62.0,33.0,29.11,ESE,108,2.0,6.0,34,0.00,,,0.00,,2013-05-05 03:42:00,
2013-05-04 23:53:00,62.0,33.0,29.11,ESE,113,2.0,6.0,34,0.00,,,0.00,,2013-05-05 03:53:00,